Eagle River, WI

6:26 PM CDT on May 25, 2018 (GMT -0500)
Eagle River Union

Weather History for KEGV - June, 2014

Change the Weather History Date:

Monday, June 9, 2014

  Actual Average Record
Temperature  
Mean Temperature 54 °F -  
Max Temperature 65 °F 75 °F 86 °F (2012)
Min Temperature 42 °F 49 °F 37 °F (2006)
Degree Days  
Heating Degree Days 12    
Growing Degree Days 4 (Base 50)    
Moisture  
Dew Point 42 °F    
Average Humidity 67    
Maximum Humidity 100    
Minimum Humidity 37    
Precipitation  
Precipitation 0.00 in - - ()
Sea Level Pressure  
Sea Level Pressure 30.07 in    
Wind  
Wind Speed 0 mph (SSW)    
Max Wind Speed 5 mph    
Max Gust Speed -    
Visibility 10 miles    
Events Rain    
Averages and records for this station are not official NWS values.
T = Trace of Precipitation, MM = Missing Value Source: NWS Daily Summary

Daily Weather History Graph

Daily Weather History Graph

Search for Another Location

Airport or City:

Astronomy

Jun. 09, 2014 Rise Set
Actual Time 5:06 AM CDT 8:46 PM CDT
Civil Twilight 4:28 AM CDT 9:24 PM CDT
Nautical Twilight 3:37 AM CDT 10:15 PM CDT
Astronomical Twilight 2:28 AM CDT 11:24 PM CDT
Moon 4:56 PM CDT (6/9) 2:46 AM CDT (6/9)
Length of Visible Light 16h 55m
Length of Day
15h 39m
Waxing Gibbous, 85% of the Moon is Illuminated
Jun 9
Waxing Gibbous
Jun 12
Full
Jun 19
Last Quarter
Jun 27
New
Jul 5
First Quarter

Hourly Weather History & Observations

Time (CDT) Temp. Dew Point Humidity Pressure Visibility Wind Dir Wind Speed Gust Speed Precip Events Conditions
12:10 AM 53.6 °F 41.9 °F 65% 30.11 in 10.0 mi Calm Calm - N/A   Clear
12:30 AM 53.4 °F 42.3 °F 66% 30.11 in 10.0 mi Calm Calm - N/A   Clear
12:50 AM 53.1 °F 41.9 °F 66% 30.10 in 10.0 mi Calm Calm - N/A   Clear
1:10 AM 52.7 °F 41.9 °F 67% 30.10 in 10.0 mi Calm Calm - N/A   Clear
1:30 AM 52.7 °F 41.2 °F 65% 30.10 in 10.0 mi Calm Calm - N/A   Clear
1:50 AM 51.3 °F 40.3 °F 66% 30.09 in 10.0 mi Calm Calm - N/A   Clear
2:10 AM 48.0 °F 40.6 °F 76% 30.10 in 10.0 mi Calm Calm - N/A   Clear
2:30 AM 45.5 °F 41.0 °F 84% 30.10 in 10.0 mi Calm Calm - N/A   Clear
2:50 AM 45.7 °F 43.9 °F 93% 30.09 in 10.0 mi Calm Calm - N/A   Clear
3:10 AM 44.6 °F 42.3 °F 91% 30.09 in 10.0 mi Calm Calm - N/A   Clear
3:30 AM 44.6 °F 43.2 °F 95% 30.09 in 10.0 mi Calm Calm - N/A   Clear
3:50 AM 43.7 °F 42.8 °F 97% 30.09 in 10.0 mi Calm Calm - N/A   Clear
4:10 AM 42.1 °F 41.4 °F 97% 30.09 in - Calm Calm - N/A   Unknown
4:30 AM 42.1 °F 42.1 °F 100% 30.08 in 5.0 mi Calm Calm - N/A   Clear
4:50 AM 42.6 °F 42.6 °F 100% 30.09 in 7.0 mi Calm Calm - N/A   Clear
5:10 AM 43.0 °F 42.6 °F 99% 30.09 in 10.0 mi Calm Calm - N/A   Clear
5:30 AM 43.7 °F 43.3 °F 99% 30.09 in 10.0 mi Calm Calm - N/A   Clear
5:50 AM 44.6 °F 43.9 °F 97% 30.09 in 10.0 mi Calm Calm - N/A   Clear
6:10 AM 45.3 °F 45.1 °F 99% 30.09 in 10.0 mi Calm Calm - N/A   Clear
6:30 AM 46.8 °F 46.2 °F 98% 30.09 in 10.0 mi Calm Calm - N/A   Clear
6:50 AM 48.4 °F 47.5 °F 97% 30.09 in 10.0 mi Calm Calm - N/A   Clear
7:10 AM 50.0 °F 46.0 °F 86% 30.09 in 10.0 mi Calm Calm - N/A   Clear
7:30 AM 51.4 °F 43.5 °F 74% 30.10 in 10.0 mi Calm Calm - N/A   Clear
7:50 AM 52.9 °F 41.9 °F 66% 30.10 in 10.0 mi Calm Calm - N/A   Clear
8:10 AM 54.0 °F 39.2 °F 57% 30.10 in 10.0 mi Calm Calm - N/A   Clear
8:30 AM 54.9 °F 35.8 °F 49% 30.10 in 10.0 mi Calm Calm - N/A   Clear
8:50 AM 56.3 °F 34.3 °F 44% 30.09 in 10.0 mi Calm Calm - N/A   Clear
9:10 AM 57.9 °F 32.9 °F 39% 30.09 in 10.0 mi South 4.6 mph - N/A   Clear
9:30 AM 58.5 °F 32.7 °F 38% 30.09 in 10.0 mi SSE 4.6 mph - N/A   Clear
9:50 AM 59.2 °F 34.0 °F 39% 30.09 in 10.0 mi SSE 4.6 mph - N/A   Scattered Clouds
10:10 AM 59.5 °F 34.7 °F 39% 30.09 in 10.0 mi South 3.5 mph - N/A   Scattered Clouds
10:30 AM 59.4 °F 34.9 °F 40% 30.08 in 10.0 mi South 3.5 mph - N/A   Mostly Cloudy
10:50 AM 59.9 °F 36.7 °F 42% 30.08 in 10.0 mi SSE 3.5 mph - N/A   Mostly Cloudy
11:10 AM 59.5 °F 35.8 °F 41% 30.08 in 10.0 mi SW 3.5 mph - N/A   Overcast
11:30 AM 60.6 °F 37.9 °F 43% 30.08 in 10.0 mi Calm Calm - N/A   Scattered Clouds
11:50 AM 60.8 °F 37.9 °F 43% 30.09 in 10.0 mi West 4.6 mph - N/A   Scattered Clouds
12:10 PM 60.4 °F 36.0 °F 40% 30.09 in 10.0 mi Calm Calm - N/A   Scattered Clouds
12:30 PM 60.8 °F 34.0 °F 37% 30.08 in 10.0 mi West 3.5 mph - N/A Rain Light Rain
1:10 PM 62.6 °F 38.1 °F 40% 30.06 in 10.0 mi West 3.5 mph - N/A   Scattered Clouds
1:30 PM 62.6 °F 36.1 °F 37% 30.06 in 10.0 mi Calm Calm - N/A   Scattered Clouds
2:50 PM 63.3 °F 41.7 °F 45% 30.05 in 10.0 mi Calm Calm - N/A   Overcast
3:10 PM 63.0 °F 41.7 °F 46% 30.04 in 10.0 mi Calm Calm - N/A   Mostly Cloudy
3:30 PM 62.1 °F 44.1 °F 52% 30.04 in 10.0 mi Calm Calm - N/A   Overcast
3:50 PM 61.9 °F 45.0 °F 54% 30.04 in 10.0 mi Calm Calm - N/A   Overcast
4:10 PM 62.1 °F 43.7 °F 51% 30.04 in 10.0 mi Calm Calm - N/A   Overcast
4:30 PM 62.6 °F 42.4 °F 48% 30.04 in 10.0 mi Calm Calm - N/A   Overcast
4:50 PM 62.8 °F 43.0 °F 48% 30.04 in 10.0 mi Calm Calm - N/A   Overcast
5:10 PM 63.1 °F 42.3 °F 46% 30.04 in 10.0 mi Calm Calm - N/A   Overcast
5:30 PM 64.2 °F 42.1 °F 44% 30.03 in 10.0 mi Calm Calm - N/A   Mostly Cloudy
5:50 PM 64.2 °F 43.2 °F 46% 30.03 in 10.0 mi Calm Calm - N/A   Overcast
6:10 PM 65.5 °F 43.0 °F 44% 30.03 in 10.0 mi Calm Calm - N/A   Overcast
6:30 PM 65.3 °F 41.5 °F 42% 30.03 in 10.0 mi North 3.5 mph - N/A   Overcast
6:50 PM 64.4 °F 41.0 °F 42% 30.03 in 10.0 mi Calm Calm - N/A   Overcast
7:10 PM 63.3 °F 46.8 °F 55% 30.03 in 10.0 mi Calm Calm - N/A   Overcast
7:30 PM 62.2 °F 45.3 °F 54% 30.02 in 10.0 mi Calm Calm - N/A   Overcast
7:50 PM 61.5 °F 47.7 °F 60% 30.02 in 10.0 mi Calm Calm - N/A   Mostly Cloudy
8:10 PM 58.1 °F 49.8 °F 74% 30.02 in 10.0 mi Calm Calm - N/A   Clear
8:30 PM 58.3 °F 48.2 °F 69% 30.02 in 10.0 mi Calm Calm - N/A   Clear
8:50 PM 55.0 °F 48.7 °F 79% 30.03 in 10.0 mi Calm Calm - N/A   Scattered Clouds
9:10 PM 53.6 °F 48.2 °F 82% 30.03 in 10.0 mi Calm Calm - N/A   Mostly Cloudy
9:50 PM 50.9 °F 50.2 °F 97% 30.03 in 10.0 mi Calm Calm - N/A   Clear
10:10 PM 51.1 °F 50.5 °F 98% 30.03 in 10.0 mi Calm Calm - N/A   Clear
10:30 PM 50.4 °F 50.0 °F 99% 30.04 in 10.0 mi Calm Calm - N/A   Clear
10:50 PM 48.4 °F 48.0 °F 99% 30.04 in 10.0 mi Calm Calm - N/A   Clear
11:10 PM 48.2 °F 48.0 °F 99% 30.04 in 10.0 mi Calm Calm - N/A   Clear
11:30 PM 48.0 °F 48.0 °F 100% 30.04 in 10.0 mi Calm Calm - N/A   Clear
11:50 PM 47.3 °F 47.3 °F 100% 30.03 in 7.0 mi Calm Calm - N/A   Clear